Flag for Nigeria Weather past 2 weeks in Owerri, Nigeria

Now
84 °F

Haze.


Feels Like: 91 °F
Forecast: 74 / 97 °F
Wind: 6 mph from West

Location: Malabo/Fernando Poo

Current Time: Dec 28, 2014 at 5:46:29 PM

Latest Report: Dec 28, 2014 at 5:00 PM


Visibility: 2 mi

Pressure: 29.83 "Hg

Humidity: 70%

Dew point: 73 °F

Location of OwerriLocation

Historic Weather in Owerri — Graph

°F

Owerri temperature yesterday

Maximum temperature yesterday: 88 °F (at 11:00 AM)
Minimum temperature yesterday: 73 °F (at 7:00 AM)
Average temperature yesterday: 82 °F

Past Weeks' High & Low Weather Summary

 TemperatureHumidityPressure
High88 °F (Dec 21, 11:00 AM)100% (Dec 20, 4:00 AM)32.84 "Hg (Dec 20, 4:00 AM)
Low73 °F (Dec 15, 8:00 AM)55% (Dec 15, 12:00 PM)29.80 "Hg (Dec 14, 3:00 PM)
Average81 °F79%29.90 "Hg
* Reported Dec 14 8:00 AM — Dec 28 4:00 PM, Owerri, Weather by CustomWeather, © 2014

Note: Actual official high and low records may vary slightly from our data, if they occured in-between our weather recording intervals... More about our weather records

Advertising

Owerri weather history for previous 24 hours

 ConditionsComfort  
Time TempWeatherWind HumidityBarometerVisibility
4:00 PM
Dec 28
86 °FHaze.3 mph66%29.83 "Hg2 mi
12:00 PM86 °FPassing clouds.6 mph79%29.89 "Hg4 mi
11:00 AM88 °FPassing clouds.3 mph79%29.92 "Hg4 mi
10:00 AM86 °FPassing clouds.3 mph79%29.92 "Hg4 mi
9:00 AM81 °FPassing clouds.No wind79%29.92 "Hg4 mi
8:00 AM77 °FFog.No wind94%29.86 "Hg3 mi
7:00 AM77 °FFog.No wind94%29.86 "Hg2 mi
6:00 AM79 °FFog.3 mph94%29.86 "Hg2 mi
5:00 AM79 °FFog.3 mph94%29.86 "Hg2 mi
4:00 AM79 °FFog.2 mph94%29.86 "Hg2 mi
3:00 AM79 °FFog.2 mph94%29.86 "Hg2 mi
2:00 AM79 °FFog.2 mph94%29.86 "Hg2 mi
1:00 AM79 °FFog.3 mph94%29.89 "Hg2 mi
12:00 AM79 °FFog.3 mph94%29.89 "Hg2 mi
11:00 PM
Dec 27
79 °FFog.5 mph89%29.89 "Hg2 mi
10:00 PM79 °FFog.6 mph89%29.86 "Hg2 mi
9:00 PM79 °FFog.6 mph94%29.86 "Hg2 mi
8:00 PM81 °FHaze.No wind79%29.83 "Hg3 mi
7:00 PM82 °FHaze.No wind74%29.83 "Hg3 mi
6:00 PM84 °FHaze.No wind62%29.83 "Hg3 mi
Weather by CustomWeather, © 2014

See weather overviewHow to use our weather pages